| time (UTC) | temp F | wind direction | speed MPH | gust MPH | rain 1hr in | rain 24hr in | rain mn in | humidity % | barometer mb |
| 20260504022118 | 54 | 225 | 5.0 | 9.0 | 0.00 | 0.02 | 0.02 | 58 | 1008.5 |
| 20260504021116 | 53 | 248 | 8.0 | 15.0 | 0.00 | 0.02 | 0.02 | 59 | 1008.5 |
| 20260504020117 | 54 | 248 | 7.0 | 13.0 | 0.00 | 0.02 | 0.02 | 60 | 1008.5 |
| 20260504015116 | 53 | 225 | 7.0 | 15.0 | 0.00 | 0.02 | 0.02 | 60 | 1008.5 |
| 20260504014116 | 53 | 225 | 6.0 | 9.0 | 0.00 | 0.02 | 0.02 | 60 | 1008.5 |
| 20260504013157 | 53 | 225 | 7.0 | 10.0 | 0.00 | 0.02 | 0.02 | 61 | 1008.5 |
| 20260504012116 | 53 | 225 | 6.0 | 12.0 | 0.00 | 0.02 | 0.02 | 63 | 1008.6 |
| 20260504011116 | 52 | 270 | 4.0 | 6.0 | 0.00 | 0.02 | 0.02 | 67 | 1008.5 |
| 20260504010116 | 52 | 225 | 4.0 | 7.0 | 0.00 | 0.02 | 0.02 | 70 | 1008.5 |
| 20260504005116 | 50 | 225 | 4.0 | 7.0 | 0.00 | 0.02 | 0.02 | 74 | 1008.4 |
| 20260504004116 | 49 | 225 | 4.0 | 7.0 | 0.00 | 0.02 | 0.02 | 84 | 1008.5 |
| 20260504003116 | 48 | 225 | 2.0 | 3.0 | 0.00 | 0.02 | 0.02 | 89 | 1008.5 |
| 20260504002237 | 48 | 0.0 | 0.0 | 0.00 | 0.02 | 0.02 | 91 | 1008.7 | |
| 20260504001118 | 49 | 0.0 | 1.0 | 0.00 | 0.02 | 0.02 | 91 | 1008.8 | |
| 20260504000116 | 49 | 0.0 | 1.0 | 0.01 | 0.02 | 0.02 | 91 | 1008.7 | |
| 20260503235118 | 49 | 248 | 1.0 | 2.0 | 0.01 | 0.02 | 0.02 | 91 | 1008.9 |
| 20260503234116 | 49 | 0.0 | 1.0 | 0.01 | 0.02 | 0.02 | 91 | 1009.0 | |
| 20260503233118 | 49 | 248 | 2.0 | 3.0 | 0.02 | 0.02 | 0.02 | 91 | 1009.2 |
| 20260503232116 | 49 | 248 | 2.0 | 5.0 | 0.02 | 0.02 | 0.02 | 90 | 1009.2 |
| 20260503231116 | 49 | 270 | 3.0 | 5.0 | 0.02 | 0.02 | 0.02 | 89 | 1009.2 |
| 20260503230116 | 50 | 293 | 2.0 | 3.0 | 0.01 | 0.01 | 0.01 | 88 | 1009.2 |
| 20260503225116 | 50 | 270 | 4.0 | 5.0 | 0.01 | 0.01 | 0.01 | 86 | 1009.3 |
| 20260503224116 | 51 | 270 | 5.0 | 9.0 | 0.01 | 0.01 | 0.01 | 83 | 1009.3 |
| 20260503223116 | 53 | 270 | 6.0 | 10.0 | 0.00 | 0.00 | 0.00 | 76 | 1009.3 |
| 20260503222117 | 53 | 248 | 6.0 | 10.0 | 0.00 | 0.00 | 0.00 | 69 | 1009.1 |
| 20260503221136 | 54 | 248 | 4.0 | 6.0 | 0.00 | 0.00 | 0.00 | 66 | 1008.9 |
| 20260503220116 | 54 | 248 | 6.0 | 10.0 | 0.00 | 0.00 | 0.00 | 64 | 1008.7 |
| 20260503215118 | 54 | 203 | 8.0 | 16.0 | 0.00 | 0.00 | 0.00 | 63 | 1008.6 |
| 20260503214116 | 53 | 225 | 5.0 | 7.0 | 0.00 | 0.00 | 0.00 | 65 | 1008.6 |
| 20260503213116 | 53 | 248 | 9.0 | 15.0 | 0.00 | 0.00 | 0.00 | 63 | 1008.5 |
| 20260503212158 | 53 | 270 | 3.0 | 5.0 | 0.00 | 0.00 | 0.00 | 64 | 1008.5 |
| 20260503211116 | 53 | 248 | 6.0 | 11.0 | 0.00 | 0.00 | 0.00 | 63 | 1008.5 |
| 20260503210116 | 53 | 203 | 8.0 | 12.0 | 0.00 | 0.00 | 0.00 | 61 | 1008.6 |
| 20260503205116 | 54 | 225 | 9.0 | 15.0 | 0.00 | 0.00 | 0.00 | 61 | 1008.6 |
| 20260503204116 | 54 | 248 | 6.0 | 10.0 | 0.00 | 0.00 | 0.00 | 60 | 1008.7 |
| 20260503203116 | 54 | 248 | 6.0 | 9.0 | 0.00 | 0.00 | 0.00 | 59 | 1008.7 |
| 20260503202136 | 55 | 203 | 5.0 | 10.0 | 0.00 | 0.00 | 0.00 | 59 | 1008.7 |
| 20260503201116 | 56 | 203 | 6.0 | 10.0 | 0.00 | 0.00 | 0.00 | 58 | 1008.8 |
| 20260503200116 | 56 | 248 | 5.0 | 7.0 | 0.00 | 0.00 | 0.00 | 57 | 1009.1 |
| 20260503195116 | 56 | 248 | 6.0 | 10.0 | 0.00 | 0.00 | 0.00 | 56 | 1009.3 |
| 20260503194116 | 56 | 248 | 9.0 | 14.0 | 0.00 | 0.00 | 0.00 | 54 | 1009.5 |
| 20260503193116 | 57 | 248 | 8.0 | 12.0 | 0.00 | 0.00 | 0.00 | 54 | 1009.6 |
| 20260503192116 | 57 | 203 | 10.0 | 18.0 | 0.00 | 0.00 | 0.00 | 53 | 1009.7 |
| 20260503191116 | 57 | 225 | 7.0 | 10.0 | 0.00 | 0.00 | 0.00 | 52 | 1009.9 |
| 20260503190116 | 56 | 248 | 8.0 | 13.0 | 0.00 | 0.00 | 0.00 | 53 | 1010.0 |
| 20260503185116 | 57 | 203 | 9.0 | 14.0 | 0.00 | 0.00 | 0.00 | 48 | 1010.3 |
| 20260503184117 | 56 | 248 | 7.0 | 13.0 | 0.00 | 0.00 | 0.00 | 52 | 1010.4 |
| 20260503183136 | 56 | 203 | 9.0 | 14.0 | 0.00 | 0.00 | 0.00 | 50 | 1010.6 |
| 20260503182116 | 56 | 248 | 7.0 | 20.0 | 0.00 | 0.00 | 0.00 | 51 | 1010.7 |
| 20260503181136 | 56 | 248 | 6.0 | 9.0 | 0.00 | 0.00 | 0.00 | 52 | 1011.0 |
| 20260503180150 | 55 | 293 | 10.0 | 17.0 | 0.00 | 0.00 | 0.00 | 49 | 1011.0 |
| 20260503175116 | 56 | 225 | 7.0 | 14.0 | 0.00 | 0.00 | 0.00 | 49 | 1011.3 |
| 20260503174156 | 57 | 248 | 8.0 | 12.0 | 0.00 | 0.00 | 0.00 | 47 | 1011.4 |
| 20260503173116 | 56 | 270 | 5.0 | 9.0 | 0.00 | 0.00 | 0.00 | 52 | 1011.5 |
| 20260503172115 | 55 | 225 | 7.0 | 9.0 | 0.00 | 0.00 | 0.00 | 51 | 1011.7 |
| 20260503171116 | 54 | 248 | 5.0 | 7.0 | 0.00 | 0.00 | 0.00 | 50 | 1011.7 |
| 20260503170116 | 54 | 225 | 8.0 | 11.0 | 0.00 | 0.00 | 0.00 | 50 | 1011.7 |
| 20260503160116 | 54 | 270 | 5.0 | 12.0 | 0.00 | 0.00 | 0.00 | 60 | 1012.5 |
| 20260503150115 | 53 | 315 | 3.0 | 5.0 | 0.00 | 0.00 | 0.00 | 67 | 1012.8 |
| 20260503140117 | 50 | 225 | 5.0 | 6.0 | 0.00 | 0.00 | 0.00 | 70 | 1013.0 |
| 20260503131120 | 47 | 248 | 6.0 | 10.0 | 0.00 | 0.00 | 0.00 | 76 | 1013.5 |
| 20260503130155 | 46 | 248 | 3.0 | 6.0 | 0.00 | 0.00 | 0.00 | 79 | 1013.5 |
| 20260503120115 | 40 | 158 | 3.0 | 5.0 | 0.00 | 0.00 | 0.00 | 82 | 1013.8 |
| 20260503110140 | 31 | 0.0 | 0.0 | 0.00 | 0.00 | 0.00 | 95 | 1013.5 | |
| 20260503100137 | 29 | 0.0 | 0.0 | 0.00 | 0.00 | 0.00 | 91 | 1013.4 | |
| 20260503090115 | 31 | 225 | 2.0 | 2.0 | 0.00 | 0.00 | 0.00 | 89 | 1013.7 |
| 20260503081135 | 30 | 225 | 1.0 | 2.0 | 0.00 | 0.00 | 0.00 | 93 | 1013.7 |
| 20260503080117 | 30 | 0.0 | 0.0 | 0.00 | 0.00 | 0.00 | 92 | 1013.7 | |
| 20260503072137 | 32 | 225 | 2.0 | 2.0 | 0.00 | 0.00 | 0.00 | 91 | 1013.6 |
| 20260503071116 | 32 | 225 | 1.0 | 2.0 | 0.00 | 0.00 | 0.00 | 91 | 1013.6 |
| 20260503070117 | 31 | 0.0 | 1.0 | 0.00 | 0.00 | 0.00 | 92 | 1013.6 | |
| 20260503060137 | 32 | 0.0 | 2.0 | 0.00 | 0.00 | 0.00 | 88 | 1013.9 | |
| 20260503055116 | 33 | 0.0 | 0.0 | 0.00 | 0.00 | 0.00 | 88 | 1013.9 | |
| 20260503054117 | 34 | 0.0 | 0.0 | 0.00 | 0.00 | 0.00 | 88 | 1014.1 | |
| 20260503053117 | 34 | 0.0 | 0.0 | 0.00 | 0.00 | 0.00 | 87 | 1014.1 | |
| 20260503052138 | 34 | 225 | 1.0 | 1.0 | 0.00 | 0.00 | 0.00 | 87 | 1014.1 |
| 20260503051117 | 35 | 0.0 | 1.0 | 0.00 | 0.00 | 0.00 | 86 | 1014.2 | |
| 20260503050117 | 35 | 225 | 2.0 | 3.0 | 0.00 | 0.00 | 0.00 | 86 | 1014.3 |
| 20260503045137 | 36 | 225 | 1.0 | 2.0 | 0.00 | 0.00 | 0.00 | 84 | 1014.3 |
| 20260503044116 | 36 | 0.0 | 1.0 | 0.00 | 0.00 | 0.00 | 83 | 1014.3 | |
| 20260503043116 | 37 | 225 | 1.0 | 1.0 | 0.00 | 0.00 | 0.00 | 82 | 1014.4 |
| 20260503042116 | 38 | 225 | 1.0 | 3.0 | 0.00 | 0.00 | 0.00 | 81 | 1014.5 |
| 20260503041116 | 38 | 225 | 2.0 | 3.0 | 0.00 | 0.00 | 0.00 | 80 | 1014.5 |
| 20260503040118 | 39 | 225 | 1.0 | 2.0 | 0.00 | 0.00 | 0.00 | 80 | 1014.5 |
| 20260503035116 | 39 | 0.0 | 1.0 | 0.00 | 0.00 | 0.00 | 81 | 1014.5 | |
| 20260503034116 | 39 | 225 | 2.0 | 3.0 | 0.00 | 0.00 | 0.00 | 81 | 1014.6 |
| 20260503033117 | 39 | 0.0 | 0.0 | 0.00 | 0.00 | 0.00 | 81 | 1014.6 | |
| 20260503032116 | 39 | 225 | 2.0 | 3.0 | 0.00 | 0.00 | 0.00 | 81 | 1014.7 |
| 20260503031116 | 39 | 248 | 1.0 | 2.0 | 0.00 | 0.00 | 0.00 | 81 | 1014.7 |
| 20260503030116 | 39 | 248 | 2.0 | 3.0 | 0.00 | 0.00 | 0.00 | 81 | 1014.7 |
| 20260503025116 | 40 | 0.0 | 1.0 | 0.00 | 0.00 | 0.00 | 80 | 1014.8 | |
| 20260503024116 | 40 | 0.0 | 0.0 | 0.00 | 0.00 | 0.00 | 78 | 1014.8 | |
| 20260503023116 | 41 | 0.0 | 1.0 | 0.00 | 0.00 | 0.00 | 75 | 1014.9 |